#timestamp,LO_Frequency,Hit,StdDev 
1618746175.2,286046971.1,P
1618746195.1,286046970.9,P
1618746196.0,286046970.9,P
1618746215.8,286046971.3,Y
1618746235.6,286047000.5,P
1618746255.5,286046998.2,N
1618746275.3,286047000.3,N
1618746295.1,286046998.2,N
1618746315.9,286046999.9,N
1618746335.7,286047000.4,N
1618746355.6,286047000.6,N
1618746375.4,286047001.0,N
1618746395.2,286047000.8,N
1618746415.1,286046998.7,N
1618746416.0,286046998.7,N
1618746435.8,286046998.4,N
1618746455.6,286046999.5,N
1618746475.5,286046996.7,N
1618746495.3,286046996.6,N
1618746515.2,286046996.5,N
1618746535.9,286046999.4,N
1618746555.7,286046996.5,N
1618746575.6,286046997.8,N
1618746595.4,286046997.7,N
1618746615.2,286046997.5,N
1618746635.1,286046997.8,N
1618746636.0,286046997.8,N
1618746655.8,286046994.9,N
1618746675.7,286046995.1,N
1618746695.5,286046995.4,N
1618746715.3,286046995.5,N
1618746735.2,286046995.7,N
1618746755.0,286046995.6,N
1618746755.9,286046995.6,N
1618746775.7,286046994.2,Y
1618746795.6,286046997.4,P
1618746815.4,286046996.8,P
1618746835.3,286046998.3,P
1618746855.1,286046996.5,Y
1618746856.0,286046996.5,P
1618746875.8,286046998.3,P
1618746895.7,286046999.0,N
1618746915.5,286046998.3,N
1618746935.4,286046998.1,N
1618746955.2,286046999.4,N
1618746975.0,286046999.3,N
1618746975.9,286046999.3,N
1618746995.8,286047001.1,N
1618747015.6,286047000.0,N
1618747035.4,286047000.7,N
1618747055.3,286046998.1,N
1618747075.1,286046999.9,N
1618747095.9,286046999.0,N
1618747115.7,286046999.5,N
1618747135.5,286046997.1,N
1618747155.4,286046995.8,Y
1618747175.2,286046999.6,P
1618747195.0,286046996.7,P
1618747196.0,286046996.7,N
